Volver al catálogo

ARIANE 44P R/B

ActivoGTO
NORAD 26488·ROCKET BODY·🇫🇷 France

Lanzado Sep 6, 2000 desde Guiana Space Centre

Loading…

TLE

ObsoletoSource: Space-Track

Época: Sep 14, 2026, 09:22 UTC

1 26488U 00052B   26257.39053208  .00000146  00000-0  40687-3 0  9996
2 26488   7.3816 278.4820 7175198 137.6002 308.2859  2.35113515215743

Sigue ARIANE 44P R/B en tiempo real con AllMySat

Download on the App Store